Time,TemperatureF,DewpointF,PressureIn,WindDirection,WindDirectionDegrees,WindSpeedMPH,WindSpeedGustMPH,Humidity,HourlyPrecipIn,Conditions,Clouds,dailyrainin,SoftwareType,DateUTC
2013-02-24 00:22:00,56.0,14.0,29.93,NE,40,32.0,65.0,19,0.00,,,-99.99,,2013-02-24 08:22:00,
2013-02-24 00:31:00,56.0,14.0,29.93,NE,40,32.0,65.0,19,0.00,,,-99.99,,2013-02-24 08:31:00,
2013-02-24 00:41:00,56.0,14.0,29.93,NE,40,32.0,65.0,19,0.00,,,-99.99,,2013-02-24 08:41:00,
2013-02-24 01:21:00,55.0,8.0,29.95,NE,40,25.0,56.0,15,0.00,,,-99.99,,2013-02-24 09:21:00,
2013-02-24 01:31:00,55.0,8.0,29.95,NE,40,25.0,56.0,15,0.00,,,-99.99,,2013-02-24 09:31:00,
2013-02-24 01:41:00,55.0,8.0,29.95,NE,40,25.0,56.0,15,0.00,,,-99.99,,2013-02-24 09:41:00,
2013-02-24 02:21:00,54.0,4.0,29.96,NNE,30,33.0,64.0,13,0.00,,,-99.99,,2013-02-24 10:21:00,
2013-02-24 02:31:00,54.0,4.0,29.96,NNE,30,33.0,64.0,13,0.00,,,-99.99,,2013-02-24 10:31:00,
2013-02-24 02:41:00,54.0,4.0,29.96,NNE,30,33.0,64.0,13,0.00,,,-99.99,,2013-02-24 10:41:00,
2013-02-24 03:21:00,53.0,2.0,29.95,NNE,30,32.0,64.0,12,0.00,,,-99.99,,2013-02-24 11:21:00,
2013-02-24 03:32:00,53.0,2.0,29.95,NNE,30,32.0,64.0,12,0.00,,,-99.99,,2013-02-24 11:32:00,
2013-02-24 03:41:00,53.0,2.0,29.95,NNE,30,32.0,64.0,12,0.00,,,-99.99,,2013-02-24 11:41:00,
2013-02-24 03:43:00,52.0,3.0,30.03,NE,40,5.0,31.0,13,0.00,,,-99.99,,2013-02-24 11:43:00,
2013-02-24 04:21:00,52.0,3.0,30.03,NE,40,5.0,31.0,13,0.00,,,-99.99,,2013-02-24 12:21:00,
2013-02-24 04:32:00,52.0,3.0,30.03,NE,40,5.0,31.0,13,0.00,,,-99.99,,2013-02-24 12:32:00,
2013-02-24 04:43:00,50.0,4.0,30.08,NNE,30,9.0,24.0,15,0.00,,,-99.99,,2013-02-24 12:43:00,
2013-02-24 05:25:00,50.0,4.0,30.08,NNE,30,9.0,24.0,15,0.00,,,-99.99,,2013-02-24 13:25:00,
2013-02-24 05:33:00,50.0,4.0,30.08,NNE,30,9.0,24.0,15,0.00,,,-99.99,,2013-02-24 13:33:00,
2013-02-24 05:43:00,49.0,5.0,30.09,NW,320,9.0,20.0,16,0.00,,,-99.99,,2013-02-24 13:43:00,
2013-02-24 06:23:00,49.0,5.0,30.09,NW,320,9.0,20.0,16,0.00,,,-99.99,,2013-02-24 14:23:00,
2013-02-24 07:22:00,48.0,7.0,30.11,NW,320,18.0,18.0,18,0.00,,,-99.99,,2013-02-24 15:22:00,
2013-02-24 07:32:00,48.0,7.0,30.11,NW,320,18.0,18.0,18,0.00,,,-99.99,,2013-02-24 15:32:00,
2013-02-24 07:42:00,48.0,7.0,30.11,NW,320,18.0,18.0,18,0.00,,,-99.99,,2013-02-24 15:42:00,
2013-02-24 08:21:00,51.0,8.0,30.13,WNW,290,2.0,13.0,17,0.00,,,-99.99,,2013-02-24 16:21:00,
2013-02-24 08:31:00,51.0,8.0,30.13,WNW,290,2.0,13.0,17,0.00,,,-99.99,,2013-02-24 16:31:00,
2013-02-24 08:41:00,51.0,8.0,30.13,WNW,290,2.0,13.0,17,0.00,,,-99.99,,2013-02-24 16:41:00,
2013-02-24 09:21:00,53.0,7.0,30.14,West,280,33.0,36.0,15,0.00,,,-99.99,,2013-02-24 17:21:00,
2013-02-24 09:32:00,53.0,7.0,30.14,West,280,33.0,36.0,15,0.00,,,-99.99,,2013-02-24 17:32:00,
2013-02-24 09:41:00,53.0,7.0,30.14,West,280,33.0,36.0,15,0.00,,,-99.99,,2013-02-24 17:41:00,
2013-02-24 10:22:00,55.0,7.0,30.16,East,80,14.0,15.0,14,0.00,,,-99.99,,2013-02-24 18:22:00,
2013-02-24 10:31:00,55.0,7.0,30.16,East,80,14.0,15.0,14,0.00,,,-99.99,,2013-02-24 18:31:00,
2013-02-24 10:42:00,55.0,7.0,30.16,East,80,14.0,15.0,14,0.00,,,-99.99,,2013-02-24 18:42:00,
2013-02-24 11:22:00,57.0,5.0,30.15,East,100,7.0,10.0,12,0.00,,,-99.99,,2013-02-24 19:22:00,
2013-02-24 11:32:00,57.0,5.0,30.15,East,100,7.0,10.0,12,0.00,,,-99.99,,2013-02-24 19:32:00,
2013-02-24 11:41:00,57.0,5.0,30.15,East,100,7.0,10.0,12,0.00,,,-99.99,,2013-02-24 19:41:00,
2013-02-24 12:21:00,60.0,1.0,30.12,ENE,70,4.0,10.0,9,0.00,,,-99.99,,2013-02-24 20:21:00,
2013-02-24 12:31:00,60.0,1.0,30.12,ENE,70,4.0,10.0,9,0.00,,,-99.99,,2013-02-24 20:31:00,
2013-02-24 12:41:00,60.0,1.0,30.12,ENE,70,4.0,10.0,9,0.00,,,-99.99,,2013-02-24 20:41:00,
2013-02-24 13:21:00,62.0,0.0,30.10,WNW,300,18.0,33.0,8,0.00,,,-99.99,,2013-02-24 21:21:00,
2013-02-24 13:32:00,62.0,0.0,30.10,WNW,300,18.0,33.0,8,0.00,,,-99.99,,2013-02-24 21:32:00,
2013-02-24 13:41:00,62.0,0.0,30.10,WNW,300,18.0,33.0,8,0.00,,,-99.99,,2013-02-24 21:41:00,
2013-02-24 14:21:00,62.0,0.0,30.10,NE,40,31.0,44.0,8,0.00,,,-99.99,,2013-02-24 22:21:00,
2013-02-24 14:31:00,62.0,0.0,30.10,NE,40,31.0,44.0,8,0.00,,,-99.99,,2013-02-24 22:31:00,
2013-02-24 14:41:00,62.0,0.0,30.10,NE,40,31.0,44.0,8,0.00,,,-99.99,,2013-02-24 22:41:00,
2013-02-24 15:21:00,62.0,0.0,30.09,NE,40,15.0,37.0,8,0.00,,,-99.99,,2013-02-24 23:21:00,
2013-02-24 15:31:00,62.0,0.0,30.09,NE,40,15.0,37.0,8,0.00,,,-99.99,,2013-02-24 23:31:00,
2013-02-24 15:41:00,62.0,0.0,30.09,NE,40,15.0,37.0,8,0.00,,,-99.99,,2013-02-24 23:41:00,
2013-02-24 16:21:00,62.0,0.0,30.08,NNE,30,11.0,31.0,8,0.00,,,-99.99,,2013-02-25 00:21:00,
2013-02-24 20:21:00,57.0,3.0,30.14,NNE,20,6.0,10.0,11,0.00,,,-99.99,,2013-02-25 04:21:00,
2013-02-24 20:31:00,57.0,3.0,30.14,NNE,20,6.0,10.0,11,0.00,,,-99.99,,2013-02-25 04:31:00,
2013-02-24 20:41:00,57.0,3.0,30.14,NNE,20,6.0,10.0,11,0.00,,,-99.99,,2013-02-25 04:41:00,
2013-02-24 21:22:00,56.0,4.0,30.15,WNW,300,9.0,12.0,12,0.00,,,-99.99,,2013-02-25 05:22:00,
2013-02-24 21:31:00,56.0,4.0,30.15,WNW,300,9.0,12.0,12,0.00,,,-99.99,,2013-02-25 05:31:00,
2013-02-24 21:41:00,56.0,4.0,30.15,WNW,300,9.0,12.0,12,0.00,,,-99.99,,2013-02-25 05:41:00,
2013-02-24 22:21:00,54.0,4.0,30.17,WNW,290,4.0,5.0,13,0.00,,,-99.99,,2013-02-25 06:21:00,
2013-02-24 22:31:00,54.0,4.0,30.17,WNW,290,4.0,5.0,13,0.00,,,-99.99,,2013-02-25 06:31:00,
2013-02-24 22:41:00,54.0,4.0,30.17,WNW,290,4.0,5.0,13,0.00,,,-99.99,,2013-02-25 06:41:00,
2013-02-24 23:21:00,54.0,6.0,30.18,NW,310,3.0,9.0,14,0.00,,,-99.99,,2013-02-25 07:21:00,
2013-02-24 23:31:00,54.0,6.0,30.18,NW,310,3.0,9.0,14,0.00,,,-99.99,,2013-02-25 07:31:00,
2013-02-24 23:41:00,54.0,6.0,30.18,NW,310,3.0,9.0,14,0.00,,,-99.99,,2013-02-25 07:41:00,